• Join FlightAware (Why Join?)
  • Login
  • US Flag 
07:38PM EDT


 

Airport Tracker/Info


-or-


 

Live Flight TrackerFlight Track Log ✈ N75746 ✈ 28-Jun-2013 ✈ KOSU - KOSU

Flight Track Log - Related Links

Times and Time Zones

All times are in EDT time to prevent confusion due to time zone crossing. See the N75746 flight status page for this flight to view local times or setup timezone preferences in your user account.

Time Position Orientation Groundspeed Altitude Reporting Facility
EDT Latitude Longitude Course Direction KTS MPH feet Rate Location/Type
10:14AM 40.0761 -83.0803 273° West 67 77 1,200  Level Indianapolis Center
10:15AM 40.0767 -83.0969 272° West 63 72 1,800 540 Climbing Indianapolis Center
10:16AM 40.0756 -83.1194 266° West 63 72 2,200 480 Climbing Indianapolis Center
10:17AM 40.0722 -83.1419 259° West 65 75 2,800 360 Climbing Indianapolis Center
10:18AM 40.0958 -83.1383 North 90 104 3,000  Climbing Indianapolis Center
10:19AM 40.1056 -83.1017 71° East 114 131 2,900 -60 Descending Indianapolis Center
10:20AM 40.1111 -83.0642 79° East 97 112 2,900  Level Indianapolis Center
10:21AM 40.1142 -83.0347 82° East 94 108 3,000  Climbing Indianapolis Center
10:22AM 40.1197 -83.0000 78° East 98 113 3,000 -60 Level Indianapolis Center
10:23AM 40.1353 -82.9669 58° Northeast 99 114 2,900 -60 Descending Indianapolis Center
10:24AM 40.1503 -82.9328 60° Northeast 99 114 2,900 -60 Level Indianapolis Center
10:25AM 40.1619 -82.9011 64° Northeast 97 112 2,800  Descending Indianapolis Center
10:26AM 40.1633 -82.8700 87° East 97 112 3,000 60 Climbing Indianapolis Center
10:27AM 40.1628 -82.8317 91° East 107 123 3,000  Level Indianapolis Center
10:28AM 40.1903 -82.8086 33° Northeast 96 110 3,000 -60 Level Indianapolis Center
10:29AM 40.2097 -82.8228 331° Northwest 93 107 2,900 -60 Descending Indianapolis Center
10:30AM 40.2133 -82.8533 279° West 80 92 2,900  Level Indianapolis Center
10:31AM 40.2150 -82.8811 275° West 78 90 3,000  Climbing Indianapolis Center
10:32AM 40.2208 -82.9067 287° West 85 98 3,000 -240 Level Indianapolis Center
10:33AM 40.2286 -82.9353 290° West 88 101 2,600 -180 Descending Indianapolis Center
10:34AM 40.2383 -82.9669 292° West 80 92 2,700  Climbing Indianapolis Center
10:35AM 40.2417 -82.9978 278° West 82 94 2,700 -180 Level Indianapolis Center
10:36AM 40.2494 -83.0264 290° West 85 98 2,400 -420 Descending Indianapolis Center
10:37AM 40.2633 -83.0561 301° West 86 99 1,900 -480 Descending Indianapolis Center
10:38AM 40.2733 -83.0850 294° West 82 94 1,500 -240 Descending Indianapolis Center
10:39AM 40.2792 -83.1108 286° West 76 87 1,500 240 Level Indianapolis Center
10:40AM 40.2767 -83.1378 263° West 76 87 2,100 540 Climbing Indianapolis Center
10:41AM 40.2803 -83.1658 280° West 73 84 2,700 360 Climbing Indianapolis Center
10:42AM 40.2581 -83.1567 163° South 113 130 2,900 60 Climbing Indianapolis Center
10:43AM 40.2408 -83.1156 119° Southeast 114 131 2,900 60 Level Indianapolis Center
10:44AM 40.2269 -83.0858 121° Southeast 104 120 3,100  Climbing Indianapolis Center
10:45AM 40.2086 -83.0581 131° Southeast 108 124 3,000 -120 Descending Indianapolis Center
10:46AM 40.1975 -83.0208 111° Southeast 113 130 2,900 -60 Descending Indianapolis Center
10:47AM 40.1858 -82.9886 115° Southeast 109 125 2,900 60 Level Indianapolis Center
10:48AM 40.1833 -82.9689 99° East 108 124 3,000 120 Climbing Indianapolis Center
10:49AM 40.1736 -82.9339 110° East 105 121 3,100 -60 Climbing Indianapolis Center
10:50AM 40.1636 -82.8981 110° East 103 119 2,900 -60 Descending Indianapolis Center
10:51AM 40.1500 -82.8575 114° Southeast 103 119 3,000  Climbing Indianapolis Center
10:52AM 40.1308 -82.8358 139° Southeast 106 122 3,000  Level Indianapolis Center
10:53AM 40.1042 -82.8414 189° South 98 113 3,000  Level Indianapolis Center
10:54AM 40.0803 -82.8517 198° South 96 110 3,000 -180 Level Indianapolis Center
10:55AM 40.0875 -82.8872 285° West 91 105 2,700 -300 Descending Indianapolis Center
10:56AM 40.0856 -82.9114 264° West 85 98 2,500 -120 Descending Indianapolis Center
10:57AM 40.0833 -82.9411 264° West 83 96 2,500 -60 Level Indianapolis Center
10:58AM 40.0811 -82.9750 265° West 83 96 2,400 -360 Descending Indianapolis Center
10:59AM 40.0789 -83.0097 265° West 81 93 1,800 -480 Descending Indianapolis Center